(°C)
-6°
-5°
-5°
-4°
-4°
-4°
-3°
(°C)
-12°
-12°
-12°
-12°
-12°
-11°
-11°
SE
SE
SE
SE
SE
SE
SE
(km/h)
17-31
17-36
18-36
22-37
24-38
25-39
26-40
(mm)
0
0
0
0
0
0
0
(%)
0
0
0
7
0
0
0

Elevação do sol

/ -56.5°
sun-icon
UV 0
08:24
16:29
Minguante côncava (282°)
00:00
14:23

METAR para 53.5°N 50.15°L (UWWW)

Hora Condições Temperatura/
Ponto de condensação
Vento Visibilidade Tempo Nuvens Pressão Mudança Bruto
VFR -6°C / -9°C 150º 8kt >10km - Clouds and Visibility OK 1021 No Significant change UWWW 272100Z 15004MPS CAVOK M06/M09 Q1021 R15/CLRD60 NOSIG RMK QFE754/1006
VFR -6°C / -9°C 160º 10kt >10km - Clouds and Visibility OK 1021 No Significant change UWWW 272030Z 16005MPS CAVOK M06/M09 Q1021 R15/CLRD60 NOSIG RMK QFE754/1006
VFR -5°C / -9°C 130º 8kt >10km - Clouds and Visibility OK 1021 No Significant change UWWW 272000Z 13004MPS CAVOK M05/M09 Q1021 R15/CLRD60 NOSIG RMK QFE754/1006
VFR -6°C / -9°C 150º 10kt >10km - Clouds and Visibility OK 1022 No Significant change UWWW 271930Z 15005MPS CAVOK M06/M09 Q1022 R15/CLRD60 NOSIG RMK QFE755/1006
VFR -6°C / °C 150º 8kt >10km - Clouds and Visibility OK 1022 No Significant change UWWW 271900Z 15004MPS CAVOK M06/M10 Q1022 R15/CLRD60 NOSIG RMK QFE755/1006
VFR -6°C / -9°C 150º 6kt >10km - Clouds and Visibility OK 1022 No Significant change UWWW 271830Z 15003MPS CAVOK M06/M09 Q1022 R15/CLRD60 NOSIG RMK QFE755/1007
VFR -6°C / -9°C 120º 6kt >10km - Clouds and Visibility OK 1022 No Significant change UWWW 271800Z 12003MPS CAVOK M06/M09 Q1022 R15/CLRD60 NOSIG RMK QFE755/1007
VFR -6°C / -9°C 110º 8kt >10km - Clouds and Visibility OK 1022 No Significant change UWWW 271730Z 11004MPS CAVOK M06/M09 Q1022 R15/CLRD60 NOSIG RMK QFE755/1007
VFR -5°C / -9°C 140º 6kt >10km - Clouds and Visibility OK 1023 No Significant change UWWW 271700Z 14003MPS CAVOK M05/M09 Q1023 R15/CLRD60 NOSIG RMK QFE756/1008
VFR -5°C / -9°C 190º 14kt >10km - Clouds and Visibility OK 1023 No Significant change UWWW 271630Z 19007MPS CAVOK M05/M09 Q1023 R15/CLRD60 NOSIG RMK QFE756/1008
VFR -5°C / -9°C 180º 14kt >10km - Clouds and Visibility OK 1023 No Significant change UWWW 271600Z 18007MPS CAVOK M05/M09 Q1023 R15/CLRD60 NOSIG RMK QFE756/1008
VFR -5°C / -9°C 180º 14kt >10km - Clouds and Visibility OK 1023 No Significant change UWWW 271530Z 18007MPS CAVOK M05/M09 Q1023 R15/CLRD60 NOSIG RMK QFE756/1008
VFR -4°C / -9°C 180º 12kt >10km - Clouds and Visibility OK 1024 No Significant change UWWW 271500Z 18006MPS CAVOK M04/M09 Q1024 R15/CLRD60 NOSIG RMK QFE756/1008
VFR -4°C / -9°C 180º 12kt >10km - Clouds and Visibility OK 1024 No Significant change UWWW 271430Z 18006MPS CAVOK M04/M09 Q1024 R15/CLRD60 NOSIG RMK QFE756/1008
VFR -4°C / -9°C 170º 10kt >10km - Clouds and Visibility OK 1024 No Significant change UWWW 271400Z 17005MPS CAVOK M04/M09 Q1024 R15/CLRD60 NOSIG RMK QFE756/1008
VFR -3°C / -7°C 180º 16kt >10km - Clouds and Visibility OK 1024 No Significant change UWWW 271330Z 18008MPS CAVOK M03/M07 Q1024 R15/CLRD60 NOSIG RMK QFE756/1008
VFR -2°C / -6°C 180º 10kt >10km - Clouds and Visibility OK 1024 No Significant change UWWW 271300Z 18005MPS CAVOK M02/M06 Q1024 R15/CLRD60 NOSIG RMK QFE756/1008
MVFR -2°C / -5°C 170º 8kt >10km - Broken Clouds 2700ft 1024 No Significant change UWWW 271230Z 17004MPS 9999 BKN027 M02/M05 Q1024 R15/CLRD60 NOSIG RMK QFE756/1008
MVFR -1°C / -4°C 190º 8kt >10km - Broken Clouds 2600ft 1024 No Significant change UWWW 271200Z 19004MPS 9999 BKN026 M01/M04 Q1024 R15/CLRD60 NOSIG RMK QFE756/1008
MVFR -1°C / -3°C 190º 12kt >10km - Broken Clouds 2600ft 1024 No Significant change UWWW 271130Z 19006MPS 9999 BKN026 M01/M03 Q1024 R15/CLRD60 NOSIG RMK QFE756/1008
IFR 0°C / -3°C 190º 12kt >10km - Broken Clouds 900ft 1024 No Significant change UWWW 271100Z 19006MPS 9999 BKN009 M00/M03 Q1024 R15/CLRD60 NOSIG RMK QFE756/1008
IFR 0°C / -3°C 190º 14kt >10km - Broken Clouds 900ft 1024 No Significant change UWWW 271030Z 19007MPS 9999 BKN009 M00/M03 Q1024 R15/CLRD60 NOSIG RMK QFE756/1008
MVFR 0°C / -3°C 180º 14kt >10km - Broken Clouds 2600ft 1024 No Significant change UWWW 271000Z 18007MPS 9999 BKN026 00/M03 Q1024 R15/CLRD60 NOSIG RMK QFE756/1008
MVFR 1°C / -3°C 200º 14kt >10km - Broken Clouds 2400ft 1024 No Significant change UWWW 270930Z 20007MPS 9999 BKN024 01/M03 Q1024 R15/CLRD60 NOSIG RMK QFE756/1008

VFR

-6°C / -9°C

[Mais]
Vento 150º 8kt
Visibilidade >10km
Tempo -
Nuvens Clouds and Visibility OK
Pressão 1021
Mudança No Significant change
Bruto UWWW 272100Z 15004MPS CAVOK M06/M09 Q1021 R15/CLRD60 NOSIG RMK QFE754/1006

VFR

-6°C / -9°C

[Mais]
Vento 160º 10kt
Visibilidade >10km
Tempo -
Nuvens Clouds and Visibility OK
Pressão 1021
Mudança No Significant change
Bruto UWWW 272030Z 16005MPS CAVOK M06/M09 Q1021 R15/CLRD60 NOSIG RMK QFE754/1006

VFR

-5°C / -9°C

[Mais]
Vento 130º 8kt
Visibilidade >10km
Tempo -
Nuvens Clouds and Visibility OK
Pressão 1021
Mudança No Significant change
Bruto UWWW 272000Z 13004MPS CAVOK M05/M09 Q1021 R15/CLRD60 NOSIG RMK QFE754/1006

VFR

-6°C / -9°C

[Mais]
Vento 150º 10kt
Visibilidade >10km
Tempo -
Nuvens Clouds and Visibility OK
Pressão 1022
Mudança No Significant change
Bruto UWWW 271930Z 15005MPS CAVOK M06/M09 Q1022 R15/CLRD60 NOSIG RMK QFE755/1006

VFR

-6°C / °C

[Mais]
Vento 150º 8kt
Visibilidade >10km
Tempo -
Nuvens Clouds and Visibility OK
Pressão 1022
Mudança No Significant change
Bruto UWWW 271900Z 15004MPS CAVOK M06/M10 Q1022 R15/CLRD60 NOSIG RMK QFE755/1006

VFR

-6°C / -9°C

[Mais]
Vento 150º 6kt
Visibilidade >10km
Tempo -
Nuvens Clouds and Visibility OK
Pressão 1022
Mudança No Significant change
Bruto UWWW 271830Z 15003MPS CAVOK M06/M09 Q1022 R15/CLRD60 NOSIG RMK QFE755/1007

VFR

-6°C / -9°C

[Mais]
Vento 120º 6kt
Visibilidade >10km
Tempo -
Nuvens Clouds and Visibility OK
Pressão 1022
Mudança No Significant change
Bruto UWWW 271800Z 12003MPS CAVOK M06/M09 Q1022 R15/CLRD60 NOSIG RMK QFE755/1007

VFR

-6°C / -9°C

[Mais]
Vento 110º 8kt
Visibilidade >10km
Tempo -
Nuvens Clouds and Visibility OK
Pressão 1022
Mudança No Significant change
Bruto UWWW 271730Z 11004MPS CAVOK M06/M09 Q1022 R15/CLRD60 NOSIG RMK QFE755/1007

VFR

-5°C / -9°C

[Mais]
Vento 140º 6kt
Visibilidade >10km
Tempo -
Nuvens Clouds and Visibility OK
Pressão 1023
Mudança No Significant change
Bruto UWWW 271700Z 14003MPS CAVOK M05/M09 Q1023 R15/CLRD60 NOSIG RMK QFE756/1008

VFR

-5°C / -9°C

[Mais]
Vento 190º 14kt
Visibilidade >10km
Tempo -
Nuvens Clouds and Visibility OK
Pressão 1023
Mudança No Significant change
Bruto UWWW 271630Z 19007MPS CAVOK M05/M09 Q1023 R15/CLRD60 NOSIG RMK QFE756/1008

VFR

-5°C / -9°C

[Mais]
Vento 180º 14kt
Visibilidade >10km
Tempo -
Nuvens Clouds and Visibility OK
Pressão 1023
Mudança No Significant change
Bruto UWWW 271600Z 18007MPS CAVOK M05/M09 Q1023 R15/CLRD60 NOSIG RMK QFE756/1008

VFR

-5°C / -9°C

[Mais]
Vento 180º 14kt
Visibilidade >10km
Tempo -
Nuvens Clouds and Visibility OK
Pressão 1023
Mudança No Significant change
Bruto UWWW 271530Z 18007MPS CAVOK M05/M09 Q1023 R15/CLRD60 NOSIG RMK QFE756/1008

VFR

-4°C / -9°C

[Mais]
Vento 180º 12kt
Visibilidade >10km
Tempo -
Nuvens Clouds and Visibility OK
Pressão 1024
Mudança No Significant change
Bruto UWWW 271500Z 18006MPS CAVOK M04/M09 Q1024 R15/CLRD60 NOSIG RMK QFE756/1008

VFR

-4°C / -9°C

[Mais]
Vento 180º 12kt
Visibilidade >10km
Tempo -
Nuvens Clouds and Visibility OK
Pressão 1024
Mudança No Significant change
Bruto UWWW 271430Z 18006MPS CAVOK M04/M09 Q1024 R15/CLRD60 NOSIG RMK QFE756/1008

VFR

-4°C / -9°C

[Mais]
Vento 170º 10kt
Visibilidade >10km
Tempo -
Nuvens Clouds and Visibility OK
Pressão 1024
Mudança No Significant change
Bruto UWWW 271400Z 17005MPS CAVOK M04/M09 Q1024 R15/CLRD60 NOSIG RMK QFE756/1008

VFR

-3°C / -7°C

[Mais]
Vento 180º 16kt
Visibilidade >10km
Tempo -
Nuvens Clouds and Visibility OK
Pressão 1024
Mudança No Significant change
Bruto UWWW 271330Z 18008MPS CAVOK M03/M07 Q1024 R15/CLRD60 NOSIG RMK QFE756/1008

VFR

-2°C / -6°C

[Mais]
Vento 180º 10kt
Visibilidade >10km
Tempo -
Nuvens Clouds and Visibility OK
Pressão 1024
Mudança No Significant change
Bruto UWWW 271300Z 18005MPS CAVOK M02/M06 Q1024 R15/CLRD60 NOSIG RMK QFE756/1008

MVFR

-2°C / -5°C

[Mais]
Vento 170º 8kt
Visibilidade >10km
Tempo -
Nuvens Broken Clouds 2700ft
Pressão 1024
Mudança No Significant change
Bruto UWWW 271230Z 17004MPS 9999 BKN027 M02/M05 Q1024 R15/CLRD60 NOSIG RMK QFE756/1008

MVFR

-1°C / -4°C

[Mais]
Vento 190º 8kt
Visibilidade >10km
Tempo -
Nuvens Broken Clouds 2600ft
Pressão 1024
Mudança No Significant change
Bruto UWWW 271200Z 19004MPS 9999 BKN026 M01/M04 Q1024 R15/CLRD60 NOSIG RMK QFE756/1008

MVFR

-1°C / -3°C

[Mais]
Vento 190º 12kt
Visibilidade >10km
Tempo -
Nuvens Broken Clouds 2600ft
Pressão 1024
Mudança No Significant change
Bruto UWWW 271130Z 19006MPS 9999 BKN026 M01/M03 Q1024 R15/CLRD60 NOSIG RMK QFE756/1008

IFR

0°C / -3°C

[Mais]
Vento 190º 12kt
Visibilidade >10km
Tempo -
Nuvens Broken Clouds 900ft
Pressão 1024
Mudança No Significant change
Bruto UWWW 271100Z 19006MPS 9999 BKN009 M00/M03 Q1024 R15/CLRD60 NOSIG RMK QFE756/1008

IFR

0°C / -3°C

[Mais]
Vento 190º 14kt
Visibilidade >10km
Tempo -
Nuvens Broken Clouds 900ft
Pressão 1024
Mudança No Significant change
Bruto UWWW 271030Z 19007MPS 9999 BKN009 M00/M03 Q1024 R15/CLRD60 NOSIG RMK QFE756/1008

MVFR

0°C / -3°C

[Mais]
Vento 180º 14kt
Visibilidade >10km
Tempo -
Nuvens Broken Clouds 2600ft
Pressão 1024
Mudança No Significant change
Bruto UWWW 271000Z 18007MPS 9999 BKN026 00/M03 Q1024 R15/CLRD60 NOSIG RMK QFE756/1008

MVFR

1°C / -3°C

[Mais]
Vento 200º 14kt
Visibilidade >10km
Tempo -
Nuvens Broken Clouds 2400ft
Pressão 1024
Mudança No Significant change
Bruto UWWW 270930Z 20007MPS 9999 BKN024 01/M03 Q1024 R15/CLRD60 NOSIG RMK QFE756/1008

TAF para 53.5°N 50.15°L (UWWW)

From till


Maximum Temperature 0ºC on . Minimum Temperature -7ºC on .
From till Wind 160º 12kt. Gust 25kt. Visibility 6000m. Broken Clouds 1600ft.
Becoming from till Wind 190º 19kt. Gust 33kt. Visibility 6000m. Broken Clouds 1600ft.
Temporarly from till Visibility 2000m. Snow Rain . Overcast 700ft.
Temporarly from till Visibility 2000m. freezing Rain . Overcast 700ft.
Temporarly from till Wind 190º 12kt. Gust 25kt. Visibility 1500m. Mist . Overcast 500ft.

Bruto: TAF UWWW 271951Z 2721/2821 16006G13MPS 6000 BKN016 TX00/2815Z TNM07/2721Z BECMG 2801/2802 19010G17MPS TEMPO 2802/2810 2000 SNRA OVC007 TEMPO 2810/2815 2000 FZRA OVC007 TEMPO 2815/2821 19006G13MPS 1500 BR OVC005

Imagens atuais de satélite e precipitação para 53.5°N 50.15°L

O marcador de lugar é colocado em 53.5°N 50.15°L. [Mais]

A imagem de satélite em tempo real combina luz visível durante o dia com radiação infravermelha durante a noite. À noite, a imagem não é escura, pois a radiação infravermelha pode detectar diferenças de temperatura. Infelizmente, nuvens baixas e neblina são difíceis de distinguir das temperaturas do solo e, portanto, podem ser quase invisíveis durante a noite. As imagens de satélite Meteosat para a Europa são atualizadas em tempo real a cada 5 minutos. GOES-16/GOES-17 ( América do Norte e do Sul) e Himawari (Ásia) são atualizadas a cada 10 minutos.

Copyright 2021 EUMETSAT / meteoblue. / Copyright 2021 meteoblue

Radar e precipitação nowcast para 53.5°N 50.15°L

Chuvisco
Leve
Moderado
Forte
Muito forte
Granizo

O marcador do lugar é colocado em 53.5°N 50.15°L. Esta animação mostra o radar de precipitação para a última hora, assim como a 1h previsão. A queda de neve pode ser invisível para o radar. A intensidade da precipitação é codificada por cores, variando do azul claro ao laranja.